Regional Weather Roundup
Issued by NWS

Home | Current Version | Previous Version | Graphics & Text | Print | Product List | Glossary On
Versions: 1 2 3 4 5 6 7 8 9 10 11 12 13 14 15 16 17 18 19 20 21 22 23 24 25 26 27 28 29 30 31 32 33 34 35 36 37 38 39 40 41 42 43 44 45 46 47 48 49 50
000
ASUS43 KMKX 160300
RWRWI

WISCONSIN REGIONAL WEATHER ROUNDUP
NATIONAL WEATHER SERVICE MILWAUKEE/SULLIVAN WI
1000 PM CDT MON SEP 15 2014

NOTE: "FAIR" INDICATES FEW OR NO CLOUDS BELOW 12,000 FEET WITH NO
SIGNIFICANT WEATHER AND/OR OBSTRUCTIONS TO VISIBILITY.

WIZ001-002-006>008-014>016-023>028-160400-
NORTHWEST WISCONSIN

CITY           SKY/WX    TMP DP  RH WIND       PRES   REMARKS
SUPERIOR ARPT  CLEAR     44  39  84 SW6       30.16S
ASHLAND        CLEAR     43  38  82 SW8       30.16S
HAYWARD        CLEAR     39  37  92 CALM      30.19R
SIREN          CLEAR     41  39  91 CALM      30.20S
RICE LAKE      CLEAR     42  40  91 CALM      30.21S
LADYSMITH      CLEAR     41  39  92 CALM      30.20S
EAU CLAIRE     CLEAR     43  39  86 CALM      30.20S
MENOMONIE      CLEAR     46  40  79 SW5       30.21S
NEW RICHMOND   CLEAR     44  41  91 CALM      30.21S
OSCEOLA        CLEAR     43  43  99 CALM      30.23S
$$

WIZ003>005-009-010-017-018-160400-
NORTH CENTRAL WISCONSIN

CITY           SKY/WX    TMP DP  RH WIND       PRES   REMARKS
WOODRUFF       CLEAR     39  37  91 CALM      30.16R
RHINELANDER    NOT AVBL
EAGLE RIVER    CLEAR     35  35 100 CALM      30.15S
LAND O LAKES   CLEAR     35  34  98 CALM      30.15F
PHILLIPS       CLEAR     38  38  97 CALM      30.17R
TOMAHAWK       CLEAR     36  35  95 CALM      30.18R
MEDFORD        CLEAR     38  38  97 CALM      30.18S
MERRILL        MOCLDY    44  39  83 CALM      30.18R
$$

WIZ029-030-035-036-043>047-160400-
CENTRAL WISCONSIN

CITY           SKY/WX    TMP DP  RH WIND       PRES   REMARKS
WAUSAU         CLEAR     46  40  79 CALM      30.17R
MOSINEE        CLEAR     45  41  87 NW7       30.19R
MARSHFIELD     CLEAR     43  39  86 NW5       30.18R
STEVENS POINT  CLEAR     47  39  74 W3        30.18R
WAUPACA        CLEAR     49  46  89 W3        30.16S
WAUTOMA        NOT AVBL
WISC RAPIDS    CLEAR     46  41  82 NW5       30.20R
CAMP DOUGLAS   NOT AVBL
$$

WIZ011>013-019>022-031-037>040-048>050-160400-
NORTHEAST WISCONSIN

CITY           SKY/WX    TMP DP  RH WIND       PRES   REMARKS
ANTIGO         CLEAR     43  39  86 NW5       30.17R
STURGEON BAY   MOCLDY    50  46  87 SW3       30.12S
GREEN BAY      CLEAR     46  45  96 W5        30.14R
MANITOWOC      NOT AVBL
APPLETON       PTCLDY    50  48  93 W9        30.15S
CLINTONVILLE   CLEAR     46  43  87 W5        30.14S
OSHKOSH        CLEAR     51  47  86 W6        30.15R
$$

WIZ032>034-041-042-053>061-160400-
SOUTHWEST WISCONSIN

CITY           SKY/WX    TMP DP  RH WIND       PRES   REMARKS
LA CROSSE      CLEAR     49  46  90 CALM      30.22R
SPARTA         CLEAR     40  40  99 CALM      30.22R
VIROQUA        FAIR      46  46 100 NW3       30.21R
BOSCOBEL       PTCLDY    46  44  93 CALM      30.22R FOG
PRAIRIE DU CHI CLEAR     46  44  93 CALM      30.22R
PLATTEVILLE    FAIR      47  45  90 CALM      30.21S
$$

WIZ056-057-062-063-064-067-068-160400-
SOUTH CENTRAL WISCONSIN

CITY           SKY/WX    TMP DP  RH WIND       PRES   REMARKS
BARABOO/DELLS  CLEAR     46  42  89 CALM      30.18R
LONE ROCK      PTCLDY    48  45  87 CALM      30.21R HAZE
WATERTOWN      CLEAR     42  42 100 CALM      30.16S
MADISON        CLEAR     46  44  93 CALM      30.18S
MIDDLETON        N/A     44  43  99 CALM      30.19S
MONROE         CLEAR     50  45  81 NW7       30.19S
JANESVILLE     CLEAR     46  45  93 NW3       30.18R FOG
$$

WIZ051-052-058>065-066-070>072-160400-
SOUTHEAST WISCONSIN

CITY           SKY/WX    TMP DP  RH WIND       PRES   REMARKS
MILWAUKEE      CLEAR     51  48  89 NW5       30.16S
WAUKESHA       CLEAR     45  45 100 CALM      30.17S
MILWAUKEE/TIMM CLEAR     46  45  93 W3        30.17S FOG
RACINE         CLEAR     49  47  93 W6        30.18R
BURLINGTON     CLEAR     42  42 100 CALM      30.17R FOG
KENOSHA        CLEAR     44  43  96 CALM      30.17R FOG
FOND DU LAC    CLEAR     48  45  89 SW5       30.15F
SHEBOYGAN      CLEAR     47  45  93 W6        30.15S
WEST BEND      CLEAR     45  43  93 CALM      30.16S FOG
JUNEAU         CLEAR     45  45  97 CALM      30.18S
$$

LSZ147-162-160400-
LAKE SUPERIOR

STATION/POSITION TIME  TEMP    WIND        PRES    WAVE
                       AIR SEA DIR/SP/G            HT/PER
                 (UTC) (F)     (DEG/KT/KT) (MB)    (FT/S)
W MID LAKE BUOY  0150   51 47  240/ 12/ 14 1019.7R   2/ 4
DEVILS ISLAND    0200   52     230/ 10/ 11 1020.6S
PORT WING        0200   49     200/  7/  9 1021.0S
SAXON HARBOR     0240   46     200/  7/  9 1020.7S
$$

LMZ867-665-643>646-160400-
LAKE MICHIGAN

STATION/POSITION TIME  TEMP    WIND        PRES    WAVE
                       AIR SEA DIR/SP/G            HT/PER
                 (UTC) (F)     (DEG/KT/KT) (MB)    (FT/S)
N MID LAKE BUOY  0150   56 58  360/ 14/ 16 1019.6S   1
NORTHPORT PIER   0200   50     240/  1/  3 1019.3S
KEWAUNEE LAKESHO 0200   52     300/  3/  5 1019.2R
SHEBOYGAN LAKESH 0200   53 49  270/  8/  9 1021.2R
PORT WASHINGTON  0240   51     290/  5/  6 1021.3R
ATWATER BUOY     0200   55     290/  8/ 10 1022.0R
MILWAUKEE LAKESH 0200   53     300/  5/  6   N/A
S MID LAKE BUOY  0150   57 64  350/ 12/ 14 1020.5R   2/ 4
KENOSHA   LAKESH 0200   53     320/  5/  7 1021.0R
$$

TC  - TEMPERATURE IN CELSIUS
VSB - VISIBILITY IN STATUTE MILES
WCI - WIND CHILL INDEX
HX  - HEAT INDEX



USA.gov is the U.S. government's official web portal to all federal, state and local government web resources and services.